Winner, SD

3:38 PM CDT on March 25, 2017 (GMT -0500)
Winner

Weather History for KICR - May, 2013

Change the Weather History Date:

Wednesday, May 22, 2013

  Actual Average Record
Temperature  
Mean Temperature 50 °F 60 °F  
Max Temperature 54 °F 72 °F 94 °F (2012)
Min Temperature 46 °F 48 °F 45 °F (2015)
Degree Days  
Heating Degree Days 15 6  
Month to date heating degree days 215 198  
Since 1 July heating degree days 6617 6602  
Cooling Degree Days 0 1  
Month to date cooling degree days 31 17  
Year to date cooling degree days 33 19  
Moisture  
Dew Point 47 °F    
Average Humidity 90    
Maximum Humidity 96    
Minimum Humidity 83    
Precipitation  
Precipitation T in 0.10 in 0.78 in (2016)
Month to date precipitation 3.52 2.32  
Year to date precipitation 4.98 6.95  
Sea Level Pressure  
Sea Level Pressure 29.95 in    
Wind  
Wind Speed 13 mph (NNW)    
Max Wind Speed 22 mph    
Max Gust Speed 26 mph    
Visibility 8 miles    
Events Rain    
T = Trace of Precipitation, MM = Missing Value Source: NWS Daily Summary

Daily Weather History Graph

Daily Weather History Graph

Search for Another Location

Airport or City:

Trip Planner

Search our weather history database for the weather conditions in past years. The results will help you decide how hot, cold, wet, or windy it might be!

Date:

Astronomy

May. 22, 2013 Rise Set
Actual Time 6:08 AM CDT 9:04 PM CDT
Civil Twilight 5:34 AM CDT 9:38 PM CDT
Nautical Twilight 4:51 AM CDT 10:21 PM CDT
Astronomical Twilight 4:01 AM CDT 11:12 PM CDT
Moon 6:25 PM CDT (5/22) 4:18 AM CDT (5/22)
Length of Visible Light 16h 04m
Length of Day
14h 56m
Waxing Gibbous, 91% of the Moon is Illuminated
May 22
Waxing Gibbous
May 24
Full
May 31
Last Quarter
Jun 8
New
Jun 16
First Quarter

Hourly Weather History & Observations

Time (CDT) Temp. Windchill Dew Point Humidity Pressure Visibility Wind Dir Wind Speed Gust Speed Precip Events Conditions
12:24 AM 46.4 °F 39.8 °F 44.6 °F 93% 29.88 in 10.0 mi NW 16.1 mph - 0.00 in Rain Light Rain
12:53 AM 46.9 °F - 45.0 °F 93% 29.89 in 8.0 mi NW 13.8 mph - 0.01 in Rain Light Rain
1:04 AM 46.4 °F 40.1 °F 44.6 °F 93% 29.87 in 6.0 mi NW 15.0 mph 24.2 mph 0.00 in Rain Light Rain
1:46 AM 46.4 °F 39.5 °F 44.6 °F 93% 29.86 in 10.0 mi NW 17.3 mph - 0.00 in   Overcast
1:53 AM 46.0 °F 39.3 °F 45.0 °F 96% 29.88 in 8.0 mi NW 16.1 mph 23.0 mph 0.00 in   Overcast
2:53 AM 46.9 °F - 45.0 °F 93% 29.87 in 5.0 mi NW 15.0 mph - N/A   Overcast
3:53 AM 46.9 °F - 45.0 °F 93% 29.87 in 6.0 mi NW 16.1 mph - 0.00 in   Overcast
4:53 AM 46.9 °F - 45.0 °F 93% 29.88 in 10.0 mi NW 13.8 mph - N/A   Overcast
5:31 AM 46.4 °F 40.7 °F 44.6 °F 93% 29.87 in 10.0 mi NW 12.7 mph - N/A   Overcast
5:51 AM 46.4 °F 40.4 °F 44.6 °F 93% 29.87 in 10.0 mi NW 13.8 mph - N/A   Overcast
5:53 AM 46.9 °F - 45.0 °F 93% 29.89 in 10.0 mi NW 13.8 mph - N/A   Overcast
6:53 AM 46.9 °F - 45.0 °F 93% 29.90 in 10.0 mi NNW 13.8 mph - 0.00 in Rain Light Rain
7:25 AM 46.4 °F 40.7 °F 44.6 °F 93% 29.88 in 2.5 mi NNW 12.7 mph - 0.00 in Rain Light Rain
7:33 AM 46.4 °F 40.7 °F 46.4 °F 100% 29.89 in 10.0 mi NW 12.7 mph - 0.00 in   Overcast
7:53 AM 46.9 °F - 46.0 °F 97% 29.91 in 10.0 mi NNW 12.7 mph - 0.00 in   Overcast
8:53 AM 48.0 °F - 46.0 °F 93% 29.91 in 10.0 mi NW 13.8 mph - N/A   Overcast
9:21 AM 48.2 °F - 46.4 °F 93% 29.90 in 10.0 mi NW 13.8 mph - N/A   Overcast
9:53 AM 48.9 °F - 46.0 °F 90% 29.93 in 10.0 mi NNW 13.8 mph - N/A   Overcast
10:18 AM 48.2 °F - 46.4 °F 93% 29.91 in 2.5 mi NW 12.7 mph - 0.00 in Rain Light Rain
10:31 AM 48.2 °F - 46.4 °F 93% 29.91 in 2.0 mi NNW 13.8 mph - 0.00 in Rain Light Rain
10:39 AM 50.0 °F - 48.2 °F 94% 29.91 in 3.0 mi NNW 15.0 mph - 0.00 in Rain Light Rain
10:51 AM 50.0 °F - 48.2 °F 94% 29.92 in 2.0 mi NNW 15.0 mph - 0.00 in Rain Light Rain
10:53 AM 50.0 °F - 48.0 °F 93% 29.94 in 1.8 mi NNW 13.8 mph - 0.00 in Rain Light Rain
11:01 AM 50.0 °F - 48.2 °F 94% 29.92 in 3.0 mi NW 15.0 mph - 0.00 in Rain Light Rain
11:53 AM 51.1 °F - 48.0 °F 89% 29.94 in 10.0 mi NW 16.1 mph - 0.00 in Rain Light Rain
12:53 PM 51.1 °F - 48.9 °F 92% 29.95 in 8.0 mi NNW 17.3 mph 26.5 mph 0.00 in Rain Light Rain
1:22 PM 51.8 °F - 48.2 °F 88% 29.95 in 9.0 mi NNW 17.3 mph - 0.00 in Rain Light Rain
1:53 PM 51.1 °F - 48.0 °F 89% 29.96 in 10.0 mi NNW 17.3 mph - 0.00 in   Overcast
2:32 PM 51.8 °F - 48.2 °F 88% 29.95 in 10.0 mi NNW 16.1 mph - N/A   Overcast
2:46 PM 51.8 °F - 48.2 °F 88% 29.96 in 10.0 mi NNW 18.4 mph 23.0 mph N/A   Overcast
2:53 PM 53.1 °F - 48.0 °F 83% 29.97 in 10.0 mi NNW 13.8 mph 23.0 mph N/A   Overcast
3:09 PM 53.6 °F - 48.2 °F 82% 29.96 in 10.0 mi NNW 13.8 mph - N/A   Overcast
3:25 PM 53.6 °F - 48.2 °F 82% 29.96 in 10.0 mi NNW 11.5 mph - N/A   Overcast
3:33 PM 53.6 °F - 48.2 °F 82% 29.96 in 10.0 mi NNW 13.8 mph - N/A   Overcast
3:53 PM 54.0 °F - 48.0 °F 80% 29.97 in 10.0 mi NNW 11.5 mph - N/A   Overcast
4:53 PM 54.0 °F - 48.0 °F 80% 29.99 in 10.0 mi North 12.7 mph - N/A   Overcast
5:53 PM 53.1 °F - 50.0 °F 89% 30.01 in 10.0 mi North 9.2 mph - 0.00 in   Overcast
6:53 PM 54.0 °F - 48.0 °F 80% 30.02 in 10.0 mi North 13.8 mph - N/A   Overcast
7:53 PM 53.1 °F - 48.9 °F 86% 30.04 in 10.0 mi North 10.4 mph - N/A   Overcast
8:53 PM 53.1 °F - 48.9 °F 86% 30.06 in 10.0 mi North 9.2 mph - N/A   Overcast
9:53 PM 52.0 °F - 50.0 °F 93% 30.09 in 10.0 mi North 8.1 mph - 0.00 in   Overcast
10:53 PM 52.0 °F - 48.9 °F 89% 30.13 in 10.0 mi NE 13.8 mph 20.7 mph 0.00 in   Overcast
11:33 PM 51.8 °F - 48.2 °F 88% 30.12 in 10.0 mi NE 6.9 mph - N/A   Overcast
11:53 PM 48.9 °F - 46.9 °F 93% 30.14 in 10.0 mi NE 3.5 mph - N/A   Scattered Clouds